GFSNGP_sfc_rhum_000.txt.gz
RH
47 45 42 42 44 42 51 46 55 36 36 29 26 27 27 42 44 42 44 45 44 46 47 48 61 66 65 64 58 49 54 60 61 64 56 55 54 52 51 51 50 51 50 50
50 34 32 36 33 31 35 37 39 38 38 27 26 50 48 50 44 47 46 43 42 43 49 64 75 69 62 61 55 52 55 54 55 55 54 56 54 53 53 53 52 50 50 52
50 38 44 50 40 39 37 34 35 40 33 31 37 44 48 50 52 49 50 45 48 62 75 69 67 63 61 54 47 49 53 49 48 45 46 49 49 48 49 48 45 50 52 51
62 56 74 41 35 35 42 35 34 34 35 38 51 53 50 45 56 54 49 58 68 71 71 70 64 58 51 45 44 44 44 44 42 43 43 42 42 42 42 41 43 42 44 51
75 70 53 46 40 43 50 47 38 41 38 44 53 55 55 47 50 62 67 68 71 70 64 60 55 48 48 48 46 43 41 38 39 39 39 39 40 38 36 38 41 38 37 42
98 87 89 50 44 40 43 64 53 47 47 58 56 71 67 54 61 64 62 64 67 60 56 54 48 46 46 44 38 35 30 31 31 33 34 35 34 33 30 34 32 33 31 36
72 80 69 44 45 43 70 65 60 56 53 60 64 58 58 56 64 63 65 64 56 51 53 47 41 38 37 32 28 26 27 27 28 28 29 28 30 30 30 29 33 33 32 31
79 82 86 46 49 60 51 53 56 60 54 52 48 52 61 65 66 68 68 56 46 50 46 36 27 27 28 29 27 27 28 28 28 28 26 24 28 30 29 29 30 35 33 35
72 77 54 50 52 46 45 52 53 53 47 47 48 56 61 66 70 66 57 49 39 38 33 26 25 27 30 28 28 28 30 30 31 30 28 28 30 31 31 30 30 32 33 40
60 53 51 44 40 51 54 57 57 61 62 59 62 63 69 76 76 68 53 42 37 38 32 30 27 26 28 29 30 32 34 34 35 35 36 34 35 34 34 34 35 37 40 43
66 56 51 48 51 56 61 64 67 61 60 60 65 82 86 84 75 54 41 38 37 35 34 32 32 32 32 32 34 36 36 37 38 39 40 40 38 38 37 36 46 50 53 53
71 53 58 57 56 64 66 67 64 64 78 84 90 92 84 73 49 39 37 38 38 38 38 37 36 36 35 37 40 41 40 42 45 44 43 45 46 42 46 54 59 62 63 62
57 54 58 58 58 60 69 68 67 73 79 96 90 66 53 40 34 35 38 38 39 40 41 42 42 43 41 41 42 45 47 45 46 47 46 47 48 54 61 56 56 56 58 61
54 59 64 66 82 74 77 90 97 99 98 96 70 44 37 37 36 37 39 38 39 42 44 44 44 43 41 41 43 48 48 53 52 52 56 56 60 62 62 63 64 61 55 56
64 78 81 81 90 95 97 98 99 94 79 59 45 39 38 40 43 43 40 39 41 46 46 46 46 44 43 44 46 49 49 51 52 60 63 63 62 64 64 64 64 63 64 61
96 98 97 99 99 99 97 97 90 90 68 40 38 38 39 42 45 46 44 44 49 49 46 48 47 45 45 46 50 54 54 58 59 61 63 64 66 68 68 69 69 69 73 76
99 100 100 100 100 96 90 89 78 42 41 43 43 42 44 48 50 51 49 45 48 51 48 50 49 45 45 53 55 59 61 61 61 62 67 67 67 70 71 73 76 73 72 70
89 90 90 89 95 84 80 46 42 44 46 43 43 45 48 49 48 51 51 50 51 50 48 48 46 52 51 52 55 57 61 63 66 68 66 67 67 66 68 70 74 78 76 74
74 83 86 86 81 71 47 44 45 43 41 46 49 52 49 50 52 52 50 53 52 53 46 45 53 57 56 56 57 59 64 64 63 64 64 65 68 74 76 74 72 73 73 73
70 62 64 65 51 42 43 40 39 43 45 49 51 53 54 53 54 55 56 56 55 52 49 50 52 53 55 58 59 60 63 66 67 65 65 66 68 71 71 68 66 68 70 74
59 45 44 43 45 41 44 43 46 49 51 51 53 56 57 57 56 57 59 59 49 51 51 54 51 55 56 56 59 64 68 69 68 71 72 70 71 72 74 70 71 68 70 71
53 46 46 44 47 49 52 53 53 54 54 54 54 56 57 61 61 64 60 60 51 54 50 52 55 58 58 61 62 66 68 68 67 67 71 73 73 74 76 79 80 78 75 82
55 47 47 51 53 54 54 57 55 56 57 57 57 58 59 58 59 64 64 54 53 55 52 54 58 62 63 58 63 66 68 69 69 66 68 75 78 82 84 84 82 80 83 84
66 54 57 58 58 64 66 62 60 60 64 63 62 62 62 63 58 57 57 57 55 54 56 58 61 63 62 59 62 63 64 63 66 74 72 70 79 82 83 82 84 84 85 86
82 89 88 88 85 75 79 85 79 80 69 65 58 56 56 60 62 53 52 54 60 60 59 61 62 62 57 58 59 60 63 69 75 74 75 91 94 93 86 85 84 87 84 82
79 78 78 82 74 65 64 63 67 65 61 61 61 61 58 55 56 57 58 59 56 59 57 55 55 55 57 59 60 61 63 67 68 71 75 81 88 90 88 83 82 81 81 87
90 70 86 70 65 62 64 64 70 72 63 63 62 59 60 58 58 57 59 55 54 53 54 55 57 61 60 61 62 62 64 66 69 70 74 89 94 94 93 90 89 89 90 83

GFSNGP_sfc_rhum_003.txt.gz
RH
48 44 42 43 45 47 58 57 54 38 39 33 38 39 41 48 52 54 53 50 52 62 83 86 75 68 63 58 56 55 58 59 58 55 46 46 49 51 50 50 50 51 47 45
46 40 37 37 36 37 40 43 52 49 45 34 35 42 51 58 53 54 50 51 65 82 84 76 76 67 58 56 51 51 49 48 48 45 45 47 46 45 46 47 46 46 46 55
52 48 48 51 44 42 44 40 38 46 36 36 44 45 54 57 55 55 52 72 80 79 75 72 69 58 54 50 46 45 44 43 38 39 42 42 41 42 43 43 41 39 50 43
68 62 74 45 44 38 43 43 43 41 40 44 49 59 54 56 61 60 74 77 77 76 69 65 55 50 48 45 45 40 45 32 32 34 35 36 36 37 37 38 36 35 39 34
76 79 61 50 51 50 52 51 51 52 52 63 60 61 69 66 68 77 80 79 72 63 59 53 46 44 42 41 38 34 34 29 29 29 31 32 34 33 33 32 34 31 30 35
94 87 83 60 53 47 48 61 59 58 61 65 65 68 67 75 72 70 66 61 60 58 51 42 39 38 34 34 29 28 30 31 30 30 31 32 31 30 30 31 30 30 27 28
85 87 73 56 49 49 67 61 57 61 60 71 71 67 69 72 68 69 65 57 52 50 48 44 36 30 29 30 31 30 34 34 34 32 33 32 31 30 31 33 31 32 30 29
86 88 87 55 55 65 60 63 65 63 59 51 61 69 70 73 77 74 69 57 47 48 45 35 27 30 32 33 31 34 37 37 36 35 34 31 35 36 36 37 37 34 34 38
78 75 58 56 58 59 58 60 68 67 62 57 63 67 68 76 75 69 59 46 37 41 38 30 31 32 34 34 35 37 40 39 39 38 37 36 40 41 41 39 40 39 41 45
66 67 66 62 64 60 60 63 67 69 68 61 61 66 74 76 79 70 54 42 39 38 34 32 31 33 36 37 36 41 42 43 42 42 43 42 43 42 44 46 46 47 52 59
78 63 61 61 64 65 66 67 70 70 69 69 75 87 91 92 82 60 44 38 37 38 39 36 37 39 38 37 43 45 46 43 44 46 47 47 46 46 46 45 52 57 61 62
89 69 70 69 63 68 70 69 70 70 80 92 91 94 90 78 52 41 38 40 41 41 40 40 42 44 42 45 48 51 46 46 49 49 49 50 51 49 52 57 60 60 60 59
74 68 64 64 77 76 79 74 74 82 85 95 89 79 64 46 35 36 38 40 42 43 44 47 50 49 45 47 52 52 55 51 50 51 50 52 54 60 66 62 60 60 60 58
76 76 80 85 82 85 86 97 93 94 94 89 75 57 41 40 37 40 43 44 45 47 49 50 51 49 47 50 49 55 54 57 55 54 58 60 63 67 68 68 71 67 60 61
89 86 82 85 91 95 94 94 95 98 98 86 66 48 39 41 46 48 47 47 47 51 53 54 54 49 46 50 51 53 54 56 57 61 65 66 65 67 68 69 69 68 67 62
94 96 98 98 97 92 93 94 98 97 82 64 50 43 42 45 49 51 52 52 54 53 51 53 52 48 48 51 54 61 62 58 59 62 64 66 67 70 68 69 70 73 77 75
83 80 98 99 98 94 97 87 86 85 68 44 44 45 46 50 53 55 54 52 52 53 52 53 51 48 52 55 64 59 61 61 63 62 68 70 69 70 72 76 83 78 72 71
86 90 90 91 92 93 90 85 72 45 48 47 46 49 52 54 56 55 54 55 57 58 56 53 52 54 58 57 62 62 63 65 66 68 68 68 69 69 69 73 80 75 73 67
77 84 87 88 91 92 81 54 49 47 45 47 51 53 56 57 57 57 58 60 61 60 50 48 54 57 60 64 59 60 63 65 66 66 68 69 70 76 82 81 76 75 74 71
62 57 67 90 86 76 58 51 48 45 47 51 54 57 59 58 58 60 61 60 60 56 54 56 57 58 59 62 60 61 65 68 74 73 71 69 73 74 75 73 73 74 68 68
66 57 48 48 46 45 46 45 47 50 52 54 56 57 58 60 61 62 64 61 52 52 54 56 56 57 56 58 60 63 66 70 71 72 73 75 75 79 80 74 70 67 69 69
73 61 51 48 48 48 52 54 55 57 58 58 58 59 61 65 67 73 66 65 55 60 56 57 57 59 58 62 61 66 67 69 72 74 76 75 75 76 79 80 82 82 80 84
86 64 53 52 51 54 55 62 64 61 60 61 61 61 62 61 63 68 65 56 57 59 54 55 59 61 63 59 63 65 65 65 66 67 71 78 79 83 86 87 88 86 87 87
89 71 57 54 59 64 66 65 67 62 63 63 66 66 68 68 64 65 65 60 57 57 57 58 62 64 63 60 61 62 64 65 70 78 75 74 82 86 88 88 89 90 88 88
93 90 90 86 76 69 80 88 86 82 69 67 63 60 59 64 70 57 58 59 62 61 59 61 62 62 58 60 61 63 66 73 78 78 78 87 87 89 90 91 92 92 92 93
88 78 74 74 73 75 68 66 69 69 68 70 67 66 65 63 66 62 62 60 56 58 56 55 56 57 60 62 64 64 65 69 70 72 75 81 86 88 88 87 87 91 90 91
91 77 86 72 67 64 67 68 74 74 68 70 71 66 68 63 60 58 59 55 54 54 56 58 60 63 62 63 64 64 67 70 72 73 76 85 88 90 89 89 91 92 93 94

GFSNGP_sfc_rhum_006.txt.gz
RH
52 48 48 52 54 60 60 59 50 49 48 43 39 37 37 40 54 63 60 56 67 91 92 84 75 68 60 55 51 54 53 57 54 52 46 46 45 43 41 42 39 41 37 36
43 39 41 42 40 41 47 53 55 54 44 37 38 45 67 71 62 62 57 63 88 86 83 83 77 61 53 51 50 50 49 49 43 37 36 39 38 38 37 37 36 37 36 36
44 51 48 50 49 48 44 43 38 41 35 41 43 52 63 69 62 59 60 86 83 81 77 71 60 52 52 50 47 41 48 35 32 32 33 34 33 34 36 35 36 35 33 34
62 62 68 52 48 43 44 46 45 44 45 54 62 65 66 67 65 62 81 83 80 76 69 63 53 50 47 42 37 34 37 32 32 33 33 33 33 34 34 32 32 31 33 31
74 76 60 56 53 51 52 61 60 59 62 66 61 70 74 75 73 83 86 82 76 68 62 54 46 42 36 33 31 30 32 34 33 34 34 34 35 35 34 33 34 34 32 32
93 85 73 58 54 51 50 60 65 67 66 75 74 80 71 84 82 83 75 68 65 60 47 44 40 32 29 31 32 32 34 36 35 37 37 37 37 38 35 36 35 35 35 34
87 86 75 58 53 52 65 58 73 72 70 71 77 74 78 80 77 73 68 59 53 51 45 38 31 30 32 35 34 33 37 38 39 39 40 38 38 38 39 41 40 42 39 37
88 88 84 61 63 69 62 74 67 64 66 71 79 82 81 78 77 72 67 56 48 49 35 28 28 32 35 37 35 37 41 42 42 42 40 36 43 43 44 45 47 46 46 47
75 75 62 66 61 62 60 60 66 71 64 64 76 80 77 81 77 71 58 46 37 37 34 30 34 36 38 38 40 42 45 46 46 44 43 43 48 48 49 48 50 51 53 60
69 72 72 64 67 66 64 63 62 66 69 72 69 72 78 81 82 67 53 41 38 35 32 35 37 38 40 41 43 47 50 49 48 48 48 48 49 48 50 53 55 58 65 69
84 74 72 72 68 68 68 71 78 79 73 67 72 82 90 92 89 61 46 40 37 36 40 41 43 43 44 44 48 53 54 52 49 51 52 52 50 50 51 51 59 63 65 65
87 75 72 76 76 74 77 78 73 72 76 87 90 90 93 90 67 51 40 39 42 45 46 46 48 49 49 50 54 58 52 50 53 54 54 54 53 51 55 60 62 62 61 60
75 73 68 76 79 79 80 79 77 84 85 91 87 93 75 46 38 38 41 43 46 48 51 52 54 54 52 52 56 57 58 54 56 56 55 55 57 63 70 65 61 62 61 61
78 74 80 82 81 81 86 96 91 89 89 86 82 66 47 42 40 42 45 47 50 50 53 54 56 55 50 54 58 60 60 59 60 60 62 64 66 68 67 69 71 68 62 63
84 83 81 85 90 97 89 89 90 89 86 89 77 59 44 43 44 47 50 49 50 54 55 55 55 52 50 53 54 56 57 60 63 66 65 65 64 66 67 69 68 68 66 67
91 94 99 98 97 95 91 91 93 92 96 82 68 48 44 46 48 51 53 54 57 56 54 56 55 50 52 55 58 59 64 63 60 60 64 64 66 70 67 68 70 74 76 74
85 85 96 97 98 98 93 91 96 88 84 61 49 46 47 49 53 56 55 56 54 57 57 56 54 51 54 60 63 63 64 65 64 63 68 68 68 69 72 79 85 77 75 71
81 87 90 90 92 92 93 94 89 75 55 49 48 49 51 55 56 56 57 58 60 61 59 55 55 56 59 63 63 65 68 66 64 67 67 69 70 70 70 75 80 80 77 71
84 82 84 87 89 92 94 92 71 50 51 49 52 54 55 59 59 59 60 63 64 64 53 54 57 60 62 65 60 61 64 66 67 68 69 72 78 85 87 80 76 78 81 72
74 74 79 90 90 89 82 61 56 52 49 52 54 57 58 58 58 60 63 65 63 58 58 61 61 62 62 63 62 64 67 69 74 73 70 66 71 76 82 76 73 76 70 68
74 66 56 66 75 62 63 54 52 50 50 55 55 56 59 60 62 63 66 64 55 56 57 59 62 62 60 60 62 65 69 72 70 72 74 76 77 76 76 73 69 69 70 70
81 78 68 55 50 48 50 50 51 52 55 58 59 61 64 67 68 74 67 67 58 62 59 61 62 61 60 62 64 67 68 68 66 65 67 70 73 78 82 83 85 82 82 87
84 86 76 63 55 53 52 60 61 61 62 63 63 64 65 66 68 73 70 59 60 62 57 59 61 62 64 61 64 65 64 65 66 67 72 79 82 86 88 89 89 92 92 89
85 88 88 66 60 58 58 60 67 66 67 63 64 68 71 74 69 68 68 62 60 61 59 60 63 63 63 62 63 64 66 67 72 81 78 78 87 91 94 92 93 91 88 86
91 95 92 89 76 65 80 89 87 86 72 68 65 64 62 66 72 62 64 64 64 63 60 61 62 63 60 63 64 66 69 76 81 80 82 86 85 89 90 90 92 92 93 93
92 93 88 77 72 73 75 74 72 69 70 73 72 69 69 69 72 66 66 63 58 59 57 56 57 59 63 65 66 67 68 71 71 74 77 82 85 89 90 92 92 92 91 92
96 84 95 83 74 70 70 69 73 76 71 74 77 72 73 70 65 60 61 58 58 58 60 61 62 65 65 66 67 68 70 73 75 76 82 90 90 89 87 88 90 90 92 93

GFSNGP_sfc_rhum_009.txt.gz
RH
57 53 61 62 63 59 55 55 52 52 54 47 47 46 41 42 52 60 67 63 80 93 92 84 73 64 57 53 51 49 51 46 45 45 42 43 43 40 37 37 34 35 35 33
49 48 44 47 48 64 64 62 58 59 52 44 44 49 52 66 66 68 65 66 88 89 86 82 74 60 53 51 48 42 45 38 39 38 39 40 38 37 36 36 35 35 34 34
49 57 54 48 48 45 44 46 43 39 35 46 57 62 71 74 67 66 64 83 92 85 80 73 59 54 53 46 35 32 38 35 37 38 40 40 38 38 38 38 37 36 35 35
58 64 59 43 50 45 44 49 42 51 53 56 64 70 74 76 71 66 73 90 84 79 74 59 54 47 39 30 29 33 35 36 39 40 40 40 40 39 41 39 38 38 38 37
68 65 56 61 53 51 52 66 59 59 59 65 66 70 72 78 77 79 89 86 80 72 65 53 43 32 26 29 32 34 36 38 39 41 41 41 42 42 41 41 42 41 40 41
91 82 69 55 53 50 45 78 68 67 73 78 76 82 76 85 88 87 80 72 70 63 52 40 31 28 28 29 33 36 38 40 41 43 44 44 44 44 42 44 43 42 44 43
79 78 68 54 54 53 65 56 74 68 74 75 74 75 76 86 85 80 76 69 59 53 43 35 27 27 30 31 36 38 41 43 46 47 48 46 46 46 46 49 48 50 48 48
85 83 74 63 64 66 64 77 65 65 66 68 74 80 88 87 84 79 70 62 53 50 35 27 29 30 32 37 39 42 46 48 50 51 46 41 50 50 52 53 55 53 55 56
71 72 65 72 65 66 62 64 70 73 72 68 75 83 84 86 85 81 68 52 42 41 38 30 32 34 40 41 44 47 50 53 53 53 51 50 57 54 56 54 55 58 60 67
74 78 78 68 69 67 72 72 73 73 74 73 75 77 82 85 88 77 59 51 43 36 32 32 37 41 44 46 48 52 56 58 55 58 53 54 57 56 55 58 60 61 68 70
82 82 79 74 77 75 74 77 78 79 78 78 80 81 87 89 90 75 50 43 38 36 37 42 46 47 48 49 53 55 57 57 58 57 63 60 58 55 54 54 62 64 67 67
83 74 73 77 75 76 77 78 80 82 80 85 88 88 92 92 77 55 49 40 40 44 47 47 51 52 52 52 56 61 56 54 57 59 63 61 58 55 56 60 62 62 62 61
74 76 70 73 77 80 80 85 92 90 89 87 93 94 88 58 44 43 38 42 45 47 51 54 56 57 55 55 58 58 62 56 60 62 63 62 63 66 71 64 61 63 63 62
78 75 79 80 83 89 92 96 91 91 94 93 89 74 60 47 43 40 43 46 50 51 55 56 57 56 53 56 58 62 64 62 61 62 66 67 67 66 66 69 70 68 62 63
83 84 84 86 88 95 94 92 92 91 87 86 84 70 48 45 44 44 48 50 51 55 54 54 55 53 55 58 55 59 60 63 64 69 69 64 62 64 66 68 67 67 66 66
94 97 99 99 97 96 95 93 91 87 87 91 92 67 51 46 46 50 53 54 54 55 56 57 57 53 56 60 61 63 66 64 63 63 64 63 64 67 68 68 69 74 75 72
90 86 95 95 99 96 96 94 85 90 96 93 82 58 48 49 52 53 51 55 55 58 59 59 56 52 57 61 68 68 69 69 66 64 67 65 66 70 72 80 89 77 76 68
82 85 82 82 84 89 91 94 95 95 93 86 53 51 51 53 51 52 55 58 60 61 59 56 57 60 65 67 66 69 70 69 66 67 66 69 72 72 72 77 80 79 76 72
84 81 82 84 87 91 92 93 93 88 59 54 53 52 53 55 56 58 60 62 65 65 56 55 60 62 68 69 61 65 67 69 69 71 72 72 72 80 85 78 80 78 77 72
81 82 82 82 89 93 93 90 83 61 56 53 52 54 56 58 59 60 63 66 64 59 62 64 67 70 68 69 65 67 69 71 72 71 71 68 71 74 72 71 70 69 70 69
72 69 64 64 80 89 88 80 65 61 53 53 54 56 58 58 62 64 67 68 59 57 60 62 66 66 65 63 64 68 72 74 72 72 70 70 70 71 72 72 72 73 72 71
75 79 77 70 63 59 53 59 59 55 52 55 59 61 65 69 70 75 67 68 62 63 62 65 66 65 61 62 65 70 71 69 66 65 68 71 74 79 85 85 86 85 84 89
75 79 82 83 72 63 56 56 56 55 57 61 64 66 67 66 69 76 73 62 66 65 58 61 63 62 63 61 66 68 66 66 67 68 74 81 83 88 90 92 90 92 90 89
77 80 83 86 82 68 62 58 63 63 67 65 65 66 70 72 71 69 71 64 62 62 59 60 63 62 62 63 66 67 68 70 75 83 80 80 89 94 89 86 89 87 85 84
86 93 96 93 87 74 78 88 89 88 77 72 67 65 65 68 74 70 72 70 65 63 63 62 61 63 62 65 67 69 71 79 84 82 84 88 87 90 90 87 87 87 90 92
85 88 91 90 85 77 76 79 78 74 70 72 72 70 72 73 76 72 71 66 60 59 59 59 60 62 64 66 68 70 71 74 74 77 80 86 88 91 92 89 86 86 87 90
97 88 96 88 80 73 72 70 68 73 72 77 80 75 76 75 68 62 63 62 62 62 63 64 64 67 66 68 69 70 73 76 78 78 84 89 88 90 90 90 90 91 91 90

GFSNGP_sfc_rhum_015.txt.gz
RH
58 60 56 59 59 55 51 44 45 47 50 42 43 46 49 48 55 58 64 72 81 84 75 62 53 48 43 34 30 28 27 30 32 33 34 34 35 35 34 34 33 34 34 32
56 58 59 64 62 52 48 55 52 51 50 43 46 52 55 55 53 56 65 70 82 82 73 63 53 48 44 31 26 28 29 30 34 35 36 38 37 36 36 36 35 36 35 35
64 54 48 56 52 64 54 59 45 54 41 49 62 60 59 60 58 61 64 67 84 81 73 60 52 47 37 24 25 27 29 31 34 36 38 39 38 38 38 38 38 37 36 36
59 56 60 48 54 56 55 53 52 49 48 54 62 60 60 62 60 63 65 76 86 78 67 55 48 39 28 25 26 29 31 32 36 38 39 39 39 38 40 39 39 38 37 39
65 59 50 59 56 56 52 60 50 65 69 67 62 60 61 66 72 74 72 83 81 68 57 49 38 29 26 26 27 30 32 34 37 39 40 40 39 40 40 41 40 39 40 41
87 71 51 48 54 49 52 60 63 62 67 67 63 63 63 73 78 84 82 76 71 58 47 35 28 25 25 27 28 31 35 39 39 41 41 41 41 42 42 43 43 44 43 44
76 70 62 52 54 51 59 53 70 69 72 73 65 62 71 80 82 79 73 66 55 49 43 33 26 26 28 29 30 35 39 42 42 41 43 41 42 44 45 46 47 48 48 44
81 77 62 60 58 57 60 69 66 64 63 64 67 75 81 83 83 76 70 65 53 43 34 26 28 28 31 30 35 40 44 45 43 42 42 40 47 47 48 51 52 51 49 50
66 68 68 71 68 70 63 64 65 64 65 64 68 74 84 86 86 78 70 61 52 42 33 31 33 31 32 35 41 44 46 44 44 43 43 46 51 50 52 52 55 53 54 59
66 75 75 73 69 66 64 65 66 65 65 67 72 74 79 88 89 82 66 54 47 42 35 32 34 35 39 42 45 48 46 46 43 45 48 47 52 52 55 56 58 55 59 61
84 86 76 73 72 73 74 74 74 72 72 72 75 80 83 88 91 79 63 53 48 40 32 34 37 41 43 44 49 46 47 45 46 47 52 56 55 53 52 52 59 60 59 60
76 74 74 74 72 73 75 80 79 78 81 88 83 84 88 91 88 72 58 48 43 37 35 39 44 45 46 48 49 52 48 44 48 52 56 55 56 56 60 63 61 60 62 61
74 78 82 81 80 80 86 89 88 89 86 90 94 93 90 79 73 63 50 46 40 39 42 45 46 47 48 49 51 51 53 51 54 57 57 58 62 65 68 57 60 61 63 63
83 76 82 83 83 88 93 92 90 94 94 94 92 84 68 58 57 51 46 42 45 45 46 46 46 47 48 52 52 55 56 64 55 57 61 64 64 63 59 62 65 62 60 64
89 84 80 90 94 96 96 96 92 92 93 92 77 75 64 56 56 49 45 46 45 47 46 46 49 48 50 53 52 56 57 57 58 62 64 63 59 60 61 62 64 64 64 62
96 94 91 90 95 100 98 96 85 90 93 92 82 80 69 60 52 47 50 50 43 42 47 50 52 50 52 55 59 61 60 63 65 61 62 61 63 64 65 65 69 67 66 66
93 99 99 99 97 98 96 87 86 89 93 90 96 94 69 53 49 50 50 50 48 50 51 53 53 50 54 60 65 63 64 66 70 62 66 64 66 68 69 72 71 71 64 62
80 84 74 61 74 80 86 89 92 93 94 96 94 90 63 53 48 47 48 52 54 53 52 49 51 56 64 65 65 66 68 68 68 68 66 69 68 63 66 68 66 69 68 63
66 71 75 74 78 81 85 88 91 92 94 94 90 80 65 55 50 50 55 56 56 55 50 52 59 62 67 68 61 64 69 70 69 69 69 70 68 66 66 66 67 68 68 64
78 77 77 79 84 85 87 90 92 93 92 78 68 60 56 54 55 57 59 57 58 56 57 62 65 70 67 69 68 68 70 71 72 69 69 64 63 64 64 68 66 66 68 66
76 73 71 73 76 82 87 89 90 88 81 62 59 57 54 54 58 61 63 62 55 54 60 63 66 68 67 66 66 69 72 70 70 70 68 64 65 67 69 71 73 74 72 70
77 74 72 71 70 71 71 79 86 82 74 65 58 56 59 67 71 75 65 63 60 62 64 69 70 69 61 61 63 68 69 68 65 63 65 67 72 79 84 84 86 82 81 82
70 73 73 78 77 78 74 68 62 62 65 61 59 62 63 65 67 69 66 60 67 69 63 67 64 61 62 57 65 66 64 64 65 66 72 81 84 89 90 89 86 84 85 86
76 75 77 83 86 84 80 80 67 60 59 61 65 67 70 71 66 67 68 64 65 63 62 63 62 60 60 62 65 67 68 69 74 83 79 82 89 92 89 86 88 85 84 83
90 95 97 96 90 90 92 91 87 86 80 77 71 69 68 69 67 68 76 74 68 63 66 63 61 63 64 68 70 71 72 79 87 86 81 87 89 92 89 87 88 87 88 87
86 89 92 91 91 89 82 78 84 81 74 74 70 69 74 76 75 72 72 66 64 62 63 63 65 66 67 69 71 71 72 74 75 78 81 85 88 91 89 84 86 86 86 88
98 91 96 89 83 81 82 79 81 77 71 70 71 77 73 70 68 65 65 69 70 70 70 70 70 73 70 70 71 70 73 76 79 80 85 88 86 89 88 86 87 87 88 87

GFSNGP_sfc_rhum_021.txt.gz
RH
31 34 39 46 51 52 52 44 42 32 31 23 22 26 27 28 30 34 37 41 42 46 43 41 39 35 31 31 25 22 21 23 24 23 22 21 23 23 21 22 23 24 25 24
42 38 35 36 36 40 41 39 35 32 30 22 20 21 27 28 30 34 37 40 41 45 44 42 39 36 33 29 25 22 21 21 22 22 22 24 24 24 23 24 25 26 26 25
47 38 41 48 36 35 35 33 32 38 31 24 27 28 28 30 31 32 34 38 43 46 47 44 40 36 34 27 22 21 21 20 20 21 22 23 23 23 25 26 26 27 25 25
59 42 74 35 29 30 32 30 29 31 28 25 27 27 29 29 31 33 35 38 44 47 48 44 38 36 28 24 22 22 22 20 20 21 22 22 22 23 25 24 26 25 26 26
58 48 36 32 33 33 36 36 28 28 26 27 36 42 47 41 36 38 39 43 48 48 47 42 38 30 27 24 22 21 21 19 20 21 22 23 23 25 25 26 27 27 28 29
64 63 59 34 34 28 29 40 25 27 29 35 44 44 46 48 48 52 52 53 55 50 44 39 33 28 28 24 20 20 20 21 20 21 22 23 24 26 27 27 28 28 28 26
89 74 55 34 33 32 39 44 34 30 31 40 42 42 48 49 53 53 55 54 48 45 41 34 28 27 26 23 21 20 21 22 22 22 22 23 26 27 28 28 29 28 27 25
94 93 84 36 39 38 46 42 38 37 38 46 53 52 53 55 58 57 56 51 44 41 36 30 27 28 25 22 21 22 23 24 24 24 24 24 28 28 27 28 29 27 28 33
54 56 48 44 45 43 40 43 43 44 44 47 52 55 57 60 59 56 52 47 42 39 34 30 27 22 23 22 23 23 24 24 24 25 26 26 28 29 29 28 28 29 34 41
41 46 47 45 48 45 42 44 42 43 44 44 52 54 58 58 58 56 51 47 43 38 36 33 28 24 22 23 24 25 24 24 26 27 29 28 30 28 27 28 35 39 47 53
48 54 52 49 46 44 44 44 46 43 42 46 49 52 54 56 58 56 53 48 44 42 39 33 26 23 23 25 25 27 26 27 28 30 29 30 29 26 27 30 42 51 56 57
39 38 38 43 45 45 48 51 51 55 56 53 52 56 53 57 57 56 53 48 48 46 36 28 24 23 24 26 28 30 31 31 31 33 30 31 29 28 37 44 46 48 52 52
40 37 40 43 45 43 48 50 49 50 55 59 55 55 54 60 59 58 51 49 47 40 32 28 26 26 26 27 31 36 35 34 34 36 30 30 33 36 42 41 45 47 48 50
45 46 51 50 54 48 53 55 56 53 53 54 58 58 59 61 61 54 51 47 39 34 31 29 28 28 27 29 34 36 36 44 38 33 36 37 37 42 42 43 44 43 44 48
48 51 47 46 51 57 61 65 67 59 57 58 57 59 56 59 59 53 43 36 35 32 31 31 30 29 29 32 36 37 38 38 37 42 44 44 42 42 42 43 44 44 44 46
68 69 68 72 82 85 80 64 50 52 54 58 59 62 59 56 53 44 38 35 35 32 30 32 31 30 32 35 38 41 39 44 44 42 43 43 43 44 45 45 46 48 49 49
90 100 100 100 98 74 54 40 44 52 56 59 60 64 60 57 52 44 39 34 32 32 31 33 33 33 36 39 43 41 40 40 46 42 44 46 47 46 47 52 52 50 49 46
55 63 64 66 60 52 51 52 54 57 60 63 67 70 64 55 51 45 39 34 33 34 34 33 34 39 44 43 42 42 42 42 44 49 49 47 45 47 47 48 50 51 51 50
55 54 54 55 47 49 55 60 61 65 70 71 73 72 65 57 51 42 33 34 33 33 30 35 44 52 44 42 47 47 46 49 48 47 46 48 44 45 48 48 51 53 54 54
47 46 48 54 53 57 61 59 61 64 69 73 72 71 67 58 46 37 34 34 34 33 39 41 46 43 41 42 48 53 53 49 47 45 43 43 43 43 47 51 52 55 59 60
54 57 60 57 58 55 59 58 60 65 71 67 65 62 57 47 40 37 39 38 39 45 47 50 45 44 42 47 54 53 50 47 44 43 41 42 44 48 53 57 62 64 66 67
51 54 58 57 57 61 60 58 56 60 58 56 51 48 45 47 45 47 41 42 44 57 48 44 44 47 54 60 55 50 47 44 41 42 45 46 54 66 74 76 79 77 77 78
50 49 50 53 53 53 50 50 51 50 53 52 49 45 42 39 40 43 45 47 46 48 51 43 47 56 60 54 48 44 43 45 46 47 55 68 73 80 81 84 83 81 82 81
51 53 55 57 54 54 59 56 48 45 46 44 45 43 45 48 50 46 45 48 50 53 50 46 50 58 61 52 46 47 49 48 56 69 66 71 78 80 80 81 84 80 80 79
76 81 82 81 68 66 76 73 71 61 49 50 50 50 48 47 46 47 43 40 46 46 41 45 51 57 51 48 48 50 53 63 72 69 67 77 80 83 82 82 84 81 81 82
62 62 66 66 66 60 55 51 51 49 48 51 52 50 47 43 41 41 38 42 41 44 43 44 46 51 52 51 53 54 54 58 60 65 73 79 82 84 83 81 81 80 79 83
77 71 67 62 58 56 54 54 54 56 50 50 54 46 44 40 38 40 42 38 39 41 44 46 48 52 54 56 57 55 60 65 70 73 78 82 81 84 81 81 82 81 82 82

GFSNGP_sfc_rhum_024.txt.gz
RH
71 66 63 69 66 67 69 62 68 51 38 38 42 44 43 42 44 46 48 51 53 60 60 59 54 48 45 39 34 30 31 34 34 31 29 30 33 33 31 33 33 35 36 36
48 62 65 64 59 61 58 56 56 52 47 28 35 37 41 44 44 46 47 51 55 58 59 57 54 47 42 38 33 31 31 31 30 29 29 33 33 33 34 36 36 36 37 37
59 45 50 60 48 55 52 52 51 57 41 37 37 38 40 42 43 48 50 52 55 61 59 55 52 42 42 36 31 29 29 27 26 27 30 32 32 33 35 37 38 38 38 36
82 59 82 46 40 35 39 40 42 41 39 38 38 45 49 44 44 46 48 52 59 64 63 55 49 47 35 32 31 31 29 24 25 28 29 31 32 33 36 37 38 38 38 38
75 65 49 46 43 45 47 46 37 40 38 50 54 59 63 57 53 55 59 62 67 62 58 52 46 34 34 31 30 29 27 25 25 27 30 32 34 36 37 39 41 41 38 38
88 84 78 51 43 35 41 61 44 39 41 54 56 70 75 64 65 68 68 66 63 56 51 45 39 36 32 31 28 27 26 27 27 29 31 33 35 38 39 41 38 36 34 34
92 88 79 46 44 40 60 60 49 44 48 55 69 67 63 65 70 70 66 60 55 53 50 43 38 36 33 29 29 27 28 29 30 31 33 33 37 40 41 41 40 41 36 34
96 97 92 45 49 54 58 56 51 56 57 68 67 65 67 68 70 65 63 60 53 43 39 37 36 34 32 30 29 29 31 32 34 34 32 30 39 42 41 42 43 40 39 43
85 81 56 55 56 57 52 54 59 64 63 61 65 68 68 70 68 64 59 54 46 42 40 37 35 32 32 32 30 30 32 33 34 35 36 36 41 43 43 42 42 41 44 52
57 60 58 54 60 61 59 59 60 59 59 61 68 68 69 67 65 62 60 59 48 44 42 40 34 30 32 32 31 33 34 35 38 40 41 41 44 44 43 42 44 44 52 59
62 65 61 60 59 58 56 56 56 56 59 63 66 72 71 71 69 66 63 59 53 51 46 42 34 32 34 33 35 39 39 41 42 45 45 46 44 41 41 42 50 49 54 56
57 48 52 60 58 55 58 62 63 62 68 68 69 71 72 76 71 68 66 62 62 57 44 37 32 32 34 36 39 42 45 47 50 51 50 50 46 40 43 45 48 49 50 49
51 52 54 56 57 57 62 65 66 70 71 72 70 71 74 77 73 64 64 64 62 49 41 36 35 35 36 37 42 47 53 50 52 52 51 47 46 49 53 49 48 49 50 50
54 54 64 62 67 64 64 66 67 68 70 73 73 74 74 77 71 67 67 62 50 44 42 40 40 39 38 40 46 50 51 49 56 56 57 58 54 54 54 54 54 51 49 51
63 63 63 63 67 75 75 73 77 76 74 75 73 74 76 80 75 67 52 46 45 44 43 42 41 40 41 44 48 51 54 58 57 60 62 58 55 55 56 54 54 54 53 52
88 82 76 80 88 88 84 74 69 71 74 76 78 75 73 72 62 53 48 47 48 47 44 44 43 44 46 47 52 59 60 52 50 58 59 59 60 58 57 55 56 56 56 56
90 100 98 98 93 86 68 59 65 71 74 76 83 78 73 66 60 57 52 47 44 45 45 45 46 48 48 49 59 62 61 60 52 57 60 64 61 59 56 60 59 56 55 52
80 89 85 85 76 60 65 67 71 74 78 80 83 74 71 70 65 60 53 47 46 47 45 46 52 57 59 58 57 62 65 64 63 66 66 64 58 55 52 54 55 57 57 56
70 74 73 65 59 65 72 77 82 83 84 86 89 87 77 70 68 58 49 48 47 46 48 52 53 59 62 55 54 65 68 70 70 68 63 55 53 54 55 55 56 58 61 61
62 56 57 67 69 71 78 78 81 89 89 88 88 86 82 70 54 48 47 48 56 58 55 60 61 60 56 54 54 71 74 74 69 64 59 51 51 50 53 55 59 65 68 65
62 63 65 66 72 73 76 79 84 90 87 84 84 81 75 60 52 51 51 54 65 63 59 55 60 61 62 62 70 76 74 70 63 61 56 53 55 58 64 71 75 72 71 71
57 61 67 71 74 77 75 76 78 78 73 66 63 60 58 59 63 66 62 65 69 56 62 62 60 55 65 60 73 71 66 59 58 59 63 63 68 80 86 85 86 85 85 82
59 61 64 67 68 69 67 66 66 67 66 63 59 56 58 61 62 60 66 65 65 61 66 62 54 54 58 71 71 66 61 61 61 62 78 91 88 91 89 91 84 84 89 89
61 68 70 69 67 70 67 63 59 58 59 56 60 59 61 66 65 62 60 52 50 58 56 52 54 55 58 70 67 66 66 67 80 89 82 74 91 91 87 84 87 87 90 87
84 89 86 84 83 79 82 83 76 71 64 64 63 62 58 56 62 59 54 51 48 51 56 51 54 56 67 69 68 68 73 86 89 87 90 93 90 89 88 89 90 87 86 87
80 83 84 80 77 72 70 67 65 65 62 65 66 61 57 53 53 51 51 48 49 49 55 58 60 62 66 68 69 72 71 78 76 81 79 88 92 92 88 87 88 85 85 89
84 78 77 71 70 70 70 67 68 70 63 64 59 54 51 48 47 48 47 48 51 52 56 59 63 64 65 68 69 70 79 83 76 77 83 89 90 91 88 88 88 88 87 87

GFSNGP_sfc_rhum_027.txt.gz
RH
91 80 72 74 76 78 86 80 68 55 52 52 50 49 48 52 53 56 58 61 65 66 65 61 57 52 43 38 36 36 37 39 37 34 32 33 35 35 34 36 36 39 40 41
90 65 67 70 66 73 71 68 63 66 64 42 51 52 51 54 53 55 57 59 65 62 63 60 54 47 38 38 37 36 37 37 34 32 32 35 34 35 35 38 39 41 42 42
83 68 67 76 70 70 71 66 61 70 54 45 49 46 47 56 51 54 57 62 64 61 60 55 49 41 38 36 35 33 33 31 30 28 31 33 33 34 37 39 42 43 42 42
86 64 78 49 45 55 65 58 59 56 45 44 53 67 66 62 54 55 56 59 63 63 58 53 46 40 35 34 34 35 32 29 28 30 30 32 34 36 39 41 43 44 44 44
83 84 61 52 44 49 51 52 50 53 50 55 62 64 69 72 66 62 61 63 70 62 56 48 40 34 33 34 35 34 30 28 28 29 31 34 36 39 40 43 46 46 44 45
92 88 82 56 46 42 46 62 57 53 56 56 59 64 80 82 75 75 69 63 59 53 43 37 35 30 31 34 32 31 29 30 28 31 33 36 38 41 43 46 44 44 41 43
91 94 78 53 45 46 58 53 60 57 57 58 61 66 76 78 74 67 62 57 52 44 40 39 35 32 33 32 31 30 30 31 32 34 36 36 41 44 46 47 47 49 47 45
92 97 92 52 49 51 53 62 70 75 74 79 79 78 79 74 71 66 65 56 46 43 42 42 36 33 36 32 32 33 33 33 35 36 35 34 44 46 47 48 50 49 49 52
84 75 61 64 61 61 59 62 74 75 74 73 77 78 75 75 70 65 56 46 42 41 43 42 38 33 34 34 34 33 33 35 37 38 40 43 46 48 51 49 49 45 48 54
77 62 63 60 65 64 64 68 71 69 70 69 77 74 74 69 64 61 54 50 44 41 40 38 36 35 36 36 35 35 37 39 43 46 48 47 50 50 50 50 55 49 54 58
63 75 68 66 63 65 65 64 67 67 66 69 70 72 69 68 66 64 60 51 46 45 42 39 36 37 37 37 38 40 42 46 50 53 53 54 52 50 53 52 56 55 58 57
68 53 53 58 63 60 60 65 68 71 78 76 71 74 72 72 67 66 64 61 58 52 47 40 37 38 40 41 43 46 48 51 55 59 59 57 55 53 50 50 52 51 52 52
50 56 62 64 64 65 68 72 70 71 71 75 78 74 74 75 75 64 69 70 63 51 44 40 39 41 42 44 47 51 54 52 60 58 59 60 61 59 62 54 51 51 52 53
60 57 66 66 72 68 71 74 73 75 76 77 80 79 77 80 74 74 73 63 51 47 44 44 44 44 44 47 49 52 54 53 62 63 63 65 65 65 60 60 60 57 53 55
68 68 65 70 73 77 74 75 80 82 81 84 81 80 75 76 77 72 59 49 48 48 48 46 45 47 48 50 49 54 59 64 64 66 66 62 60 61 63 62 60 59 56 53
88 81 79 80 84 84 81 78 79 84 80 80 82 85 80 74 63 55 52 50 49 49 47 47 47 50 51 51 56 63 65 57 56 62 62 61 63 65 63 59 59 58 57 56
86 95 92 91 88 76 72 72 73 74 76 78 84 81 67 62 59 57 54 49 49 50 48 49 53 52 51 55 63 64 66 66 59 64 65 66 68 63 62 63 59 56 55 53
83 86 79 78 74 68 74 75 70 71 78 84 80 70 66 63 60 58 53 51 52 51 50 53 57 59 61 60 60 65 67 70 70 73 70 69 62 55 56 55 56 59 60 60
85 86 81 67 65 70 75 79 77 83 89 80 79 78 74 69 64 58 52 51 50 51 56 61 56 60 62 56 59 68 72 76 76 76 68 57 60 56 57 58 59 65 69 67
77 65 61 69 71 74 80 80 86 90 92 90 87 81 72 62 57 53 51 60 58 57 60 64 62 63 60 62 60 77 80 81 78 70 62 56 56 57 57 63 67 70 72 70
66 67 70 72 80 80 87 89 89 92 92 88 84 80 67 58 53 53 58 64 66 63 62 59 64 68 69 68 74 77 78 76 66 65 63 61 62 66 72 75 78 77 78 75
63 68 72 73 79 87 87 84 80 77 73 70 65 60 56 62 68 70 65 66 71 63 65 65 63 58 65 64 73 74 70 64 64 66 70 69 76 83 90 90 92 86 83 85
65 68 70 72 74 76 74 73 72 67 65 63 60 59 59 63 61 63 70 68 66 61 64 63 53 53 58 71 72 69 68 68 68 69 79 90 91 95 91 89 87 86 90 91
64 67 69 66 64 64 69 67 63 64 62 59 62 61 60 62 64 63 62 56 54 54 56 56 57 56 61 70 73 74 73 74 84 92 86 78 92 92 96 91 91 90 87 87
76 80 82 82 75 71 76 76 74 70 63 62 58 57 58 61 62 57 55 54 52 57 56 55 56 58 71 74 73 75 82 92 91 86 83 93 96 94 93 90 90 89 89 88
75 80 84 80 73 67 66 62 65 64 61 62 59 56 54 55 55 55 54 52 54 53 60 63 65 66 70 73 76 78 78 85 80 86 84 92 92 93 94 92 91 90 89 90
80 75 74 72 70 68 65 63 65 70 64 57 56 54 51 51 52 54 53 55 58 60 63 65 69 70 69 70 68 71 84 88 82 84 89 93 94 94 93 93 92 90 90 90

GFSNGP_sfc_rhum_030.txt.gz
RH
96 93 94 77 89 83 78 68 79 62 78 63 49 52 59 60 64 68 74 76 72 71 69 62 55 49 41 39 38 38 39 41 38 36 35 36 37 36 37 38 39 41 43 43
98 83 91 91 82 78 82 84 92 68 62 44 55 58 66 64 63 66 70 72 70 68 68 62 54 45 37 39 40 39 41 40 38 36 34 36 36 37 37 39 40 42 44 45
99 76 89 99 93 87 95 83 80 76 53 51 53 51 64 65 58 62 66 70 69 68 64 59 49 39 38 38 39 38 38 36 34 32 32 36 35 36 38 40 43 45 46 46
97 70 78 52 46 60 62 59 56 57 49 51 55 70 69 73 59 61 63 68 66 66 63 55 44 40 37 35 36 37 36 33 31 32 32 34 35 37 40 42 45 47 47 47
97 91 65 48 46 60 70 66 62 61 57 65 68 67 73 84 71 69 65 67 66 64 57 48 40 35 34 37 38 36 34 30 30 31 33 35 37 40 42 45 49 49 48 50
96 88 83 60 52 46 50 64 61 56 63 65 65 64 71 91 83 80 77 70 64 55 48 40 37 33 34 37 36 34 31 32 31 34 34 37 40 44 45 49 48 49 47 46
95 96 78 60 52 51 62 54 64 63 62 61 56 69 87 77 72 66 62 55 48 45 42 37 34 33 35 35 34 33 34 34 35 36 37 39 44 48 50 51 50 52 48 49
94 97 82 55 46 49 49 76 78 78 80 88 88 82 78 72 69 63 57 50 45 42 40 38 35 34 36 35 36 36 37 37 38 38 38 39 48 50 51 53 54 54 55 56
85 78 67 66 63 67 64 69 81 85 82 81 82 80 76 74 65 57 51 48 44 42 41 42 40 33 35 37 37 37 37 38 41 43 47 48 53 54 55 54 58 60 58 64
81 67 76 68 72 67 68 76 80 78 78 75 81 76 74 68 59 55 52 48 44 41 41 43 38 36 37 39 38 37 39 45 49 51 56 54 53 51 58 62 66 59 59 62
79 72 71 67 71 72 75 74 75 75 73 74 72 74 69 68 62 56 50 47 44 41 39 42 40 40 40 40 40 42 46 48 51 56 61 59 55 58 66 64 64 61 65 64
74 54 55 58 66 67 70 75 74 75 78 76 68 70 67 68 63 55 55 54 50 46 40 42 41 42 44 44 45 48 47 51 56 64 64 58 62 65 57 54 54 53 54 55
54 56 67 66 67 67 74 76 74 76 74 77 74 68 68 71 72 60 61 58 55 51 45 44 45 45 47 48 50 50 53 55 63 61 64 68 69 69 68 59 54 54 54 55
61 59 67 68 74 74 75 77 77 80 80 78 80 76 73 76 74 72 69 64 55 48 47 46 47 48 49 51 51 53 56 55 65 68 68 70 71 67 67 66 67 61 56 55
70 71 66 74 75 79 76 77 84 88 86 89 82 80 76 78 81 77 61 52 48 48 48 48 48 50 53 52 50 57 60 66 67 69 67 64 63 66 69 69 66 61 57 53
89 83 79 81 86 86 84 84 85 89 87 88 84 82 82 75 67 60 56 51 46 50 50 49 50 53 53 53 60 63 64 59 60 66 65 67 70 70 68 65 60 60 59 57
86 94 92 91 88 84 80 78 77 81 82 78 77 71 66 62 60 58 54 53 51 51 50 52 55 54 54 60 63 62 66 67 62 70 74 74 73 68 65 61 60 58 60 58
78 77 76 74 77 79 82 81 77 70 73 74 65 62 62 60 58 58 56 56 54 54 54 56 58 60 62 59 61 64 68 72 73 78 75 70 64 59 58 58 60 65 67 66
85 84 79 72 71 75 79 81 75 76 72 66 65 70 67 63 60 55 53 51 52 54 61 66 60 61 59 59 64 74 76 78 78 76 68 60 62 58 61 62 67 71 72 71
84 70 68 73 68 70 79 76 75 75 75 80 81 77 72 66 58 54 53 60 57 57 66 65 62 61 60 66 66 76 78 79 74 67 65 63 62 64 66 70 71 74 77 74
72 70 72 73 80 78 78 77 78 83 91 81 71 65 61 58 57 62 65 68 71 66 67 62 65 68 69 75 70 75 75 71 66 70 70 69 70 75 78 82 84 78 78 76
67 71 78 79 86 93 89 88 90 88 84 73 62 57 58 68 73 74 68 72 76 62 63 62 65 58 68 64 72 72 70 69 71 73 77 78 82 89 93 90 90 87 86 87
70 74 75 79 80 82 75 72 71 68 65 60 59 61 62 65 63 64 74 72 69 58 60 63 55 55 64 69 71 72 73 74 75 78 87 95 96 97 96 95 91 89 92 90
69 72 74 72 68 67 70 68 65 66 65 62 63 60 61 64 63 66 64 60 55 56 59 62 60 57 60 73 76 79 79 81 92 95 93 81 95 96 96 92 92 90 90 89
76 78 77 76 72 72 79 78 75 69 62 61 61 61 61 62 57 58 57 58 55 54 59 57 57 61 73 77 78 82 88 94 93 92 91 96 95 96 94 94 94 92 92 91
72 73 75 68 66 66 64 61 64 61 54 56 57 57 57 58 58 59 59 56 60 58 65 66 70 72 76 78 79 77 80 87 85 91 89 96 95 96 96 94 94 93 91 92
82 76 74 71 67 66 65 63 64 64 55 50 54 54 56 58 59 60 57 60 65 67 69 70 72 70 70 72 72 75 86 90 86 90 94 96 96 96 95 94 93 92 91 91

GFSNGP_sfc_rhum_033.txt.gz
RH
95 92 94 98 90 83 83 65 70 59 68 59 44 57 69 78 81 85 86 84 76 73 67 59 53 46 40 40 39 37 39 42 41 39 39 39 38 37 39 41 41 44 44 45
98 83 94 98 96 76 72 60 64 75 67 48 51 56 68 72 74 80 83 81 76 71 66 57 50 44 39 41 41 40 42 43 41 40 38 38 35 38 39 41 42 45 46 47
99 97 96 99 94 77 76 65 60 91 68 52 58 58 64 69 68 75 78 79 76 72 62 55 48 39 40 40 42 42 42 40 38 37 37 36 36 38 39 43 46 47 47 48
99 90 97 71 79 78 79 77 77 78 72 69 58 64 68 70 65 71 75 75 74 70 64 53 44 41 40 40 41 42 40 37 36 36 34 36 37 40 43 45 47 47 48 50
99 99 71 55 87 92 94 90 81 80 77 59 70 65 71 78 69 70 70 71 71 67 59 48 42 38 38 41 41 39 38 35 32 32 35 38 40 43 45 47 48 51 51 51
96 98 85 60 53 48 56 80 64 68 67 68 65 65 64 84 82 81 77 74 70 59 50 43 40 36 37 39 38 38 35 32 32 37 37 40 43 47 47 51 49 50 47 50
95 86 81 66 57 53 65 55 63 62 67 69 61 80 85 80 78 77 72 65 56 51 46 41 36 35 38 38 38 36 35 36 39 39 41 44 48 49 53 54 52 56 53 58
90 98 82 60 48 52 50 79 82 82 77 92 90 81 76 70 68 65 63 57 48 45 41 38 36 36 39 37 38 39 40 41 41 45 41 42 51 55 54 56 60 62 65 62
88 82 68 69 66 68 67 70 85 87 87 80 81 80 72 68 62 58 53 50 44 42 41 42 41 34 36 41 41 41 40 43 47 49 50 52 56 56 58 62 68 70 64 70
82 77 79 72 74 69 72 80 87 85 79 75 81 72 66 60 57 55 52 47 42 40 41 43 40 39 39 41 40 40 45 50 52 56 59 59 53 53 66 70 75 63 65 66
84 75 67 70 71 76 81 80 79 78 76 74 70 68 62 60 57 53 50 46 43 42 41 43 42 42 42 42 41 44 49 49 57 59 64 62 57 64 76 71 68 66 70 69
76 64 62 63 69 73 74 78 75 75 77 74 68 67 63 61 55 52 52 48 46 45 42 46 43 45 46 45 46 48 49 51 61 64 66 61 67 69 57 55 56 55 55 56
59 58 70 73 72 73 76 76 74 75 71 74 73 66 63 62 61 57 55 50 46 46 47 47 49 50 51 51 50 49 53 58 64 65 70 73 73 70 71 60 57 56 54 56
67 65 71 73 77 76 76 78 78 80 76 72 73 69 67 67 64 60 60 59 50 47 49 50 50 52 52 54 51 55 59 57 66 74 72 72 73 69 71 70 70 65 57 56
77 74 68 75 77 81 78 78 83 85 82 84 78 77 73 72 72 73 63 52 47 50 52 50 51 55 56 53 51 60 60 68 72 71 69 68 69 71 72 72 69 63 60 56
90 87 83 83 88 87 86 84 85 90 86 84 82 83 83 75 67 62 56 50 46 50 52 51 54 56 55 56 63 64 64 59 62 72 72 74 75 73 71 64 62 62 61 60
86 96 94 94 91 89 82 83 80 84 86 82 75 69 66 62 59 59 58 55 52 52 52 53 58 54 58 63 63 66 69 70 63 75 78 78 74 70 62 60 62 62 64 62
81 80 78 75 81 87 89 87 84 79 74 69 62 62 61 59 59 61 59 55 55 58 57 58 60 63 62 62 64 70 75 76 76 79 76 67 67 62 62 63 65 70 72 68
83 79 78 77 75 78 79 79 78 72 65 61 64 68 66 62 57 58 55 53 55 58 66 69 63 62 61 66 75 79 76 78 76 72 65 64 65 63 67 68 74 76 76 75
81 77 76 81 77 75 82 75 68 67 66 69 68 66 64 61 55 54 54 60 58 60 71 66 64 63 68 75 68 74 75 74 69 68 70 70 69 72 72 76 75 78 79 74
80 78 78 76 84 82 78 71 70 74 79 71 66 64 61 59 60 64 67 72 76 69 70 65 67 72 74 74 69 73 72 71 71 77 77 77 78 83 85 84 85 80 80 78
79 83 84 80 89 92 81 77 77 76 69 64 60 57 59 68 74 78 73 74 77 62 64 67 68 61 76 63 70 71 72 74 77 80 84 87 88 93 95 94 94 89 87 89
76 77 78 79 81 84 78 78 74 66 62 59 60 61 62 68 66 70 78 76 68 59 64 68 59 60 63 70 72 75 78 79 80 83 95 97 97 98 97 96 92 92 93 91
77 81 77 74 71 71 76 71 67 66 64 62 64 63 63 67 69 73 70 62 56 60 68 65 62 60 60 75 79 84 83 83 94 96 96 84 97 98 97 94 95 93 92 91
81 80 79 78 75 76 81 78 74 70 65 66 65 63 62 61 61 64 67 65 54 56 62 60 59 63 77 80 83 84 87 96 96 95 96 98 98 97 96 95 96 94 92 92
71 72 72 69 69 66 64 61 63 60 57 60 60 60 62 61 57 62 61 60 64 61 68 70 73 75 76 79 80 78 83 91 90 96 92 98 96 96 96 96 95 94 92 92
76 74 73 69 66 65 65 61 59 61 54 52 56 58 58 60 59 61 60 65 69 70 71 70 70 71 75 77 78 81 91 95 88 91 96 97 96 97 96 95 95 93 91 91

GFSNGP_sfc_rhum_036.txt.gz
RH
94 84 87 96 99 98 98 86 91 61 56 45 47 47 74 88 96 92 88 82 74 67 61 53 47 41 38 38 37 36 38 41 42 43 43 42 42 41 42 42 43 45 45 46
97 83 95 99 96 98 95 91 79 63 60 41 49 75 72 89 95 93 86 77 72 63 58 53 44 40 38 40 41 40 42 43 44 44 42 43 41 40 40 43 45 47 47 48
93 91 98 100 97 97 94 74 70 80 57 43 56 57 68 84 87 87 81 76 70 63 56 50 43 38 40 41 43 42 42 42 42 42 42 42 38 38 41 45 48 49 49 50
98 98 96 77 79 84 91 69 64 58 57 65 65 67 65 70 78 82 80 77 71 63 57 50 43 42 42 42 44 44 42 40 41 41 39 37 37 41 45 48 50 52 51 52
100 97 87 64 90 89 96 90 76 73 60 59 70 75 76 75 73 78 79 75 71 62 54 46 43 41 41 45 44 41 40 40 38 37 35 37 41 46 49 51 53 53 52 53
99 99 98 69 61 77 74 88 80 76 76 78 75 77 73 83 81 83 76 75 71 59 50 44 42 39 40 43 40 40 39 37 36 35 37 43 48 49 52 54 48 48 49 55
99 97 82 63 63 71 82 56 70 79 77 87 83 83 87 84 86 80 77 70 59 54 49 43 39 38 41 41 40 39 37 38 37 38 46 49 52 54 55 54 54 61 59 66
91 97 84 62 56 61 57 75 78 80 74 76 87 81 77 77 77 74 71 64 54 50 45 41 38 38 40 40 42 40 43 40 44 49 42 46 54 56 56 61 67 69 73 68
86 84 68 72 62 66 68 71 84 86 90 82 82 79 74 72 69 61 58 54 48 45 44 45 43 34 37 45 41 42 42 49 52 52 53 53 56 59 62 68 74 76 69 73
86 78 76 76 72 76 76 82 88 85 81 77 77 69 66 62 60 57 54 51 46 43 42 43 42 39 39 42 41 43 51 54 57 65 60 61 53 55 72 74 78 66 70 70
84 77 78 71 75 84 84 80 79 76 73 70 66 65 62 61 57 52 50 47 44 43 42 44 40 42 42 42 43 47 52 54 61 62 63 63 59 67 77 78 72 69 73 70
79 64 65 64 77 81 83 84 80 76 76 71 63 62 57 56 51 50 50 47 46 44 42 44 42 46 47 47 48 51 52 55 67 63 69 63 70 73 59 56 56 56 55 56
70 67 71 77 75 76 79 78 77 75 72 70 63 57 55 57 55 55 49 47 46 47 47 48 49 52 53 52 50 51 59 62 66 68 71 75 77 75 75 61 56 54 54 56
71 69 74 72 78 79 77 76 74 72 70 67 65 59 60 61 55 52 53 50 47 48 50 50 52 56 56 55 53 61 70 62 68 76 73 75 79 74 75 74 72 64 58 58
80 75 69 76 79 85 78 73 78 78 75 78 71 66 60 61 62 60 53 46 47 50 52 52 55 59 57 55 57 62 64 70 76 74 72 72 74 74 73 74 68 65 62 58
92 88 86 85 89 89 83 78 80 83 80 78 75 74 72 67 62 58 54 49 47 51 54 54 58 58 58 63 64 64 65 60 65 74 75 77 75 72 73 66 66 66 65 64
88 98 97 97 92 84 78 76 76 79 81 77 73 64 60 59 58 57 59 56 53 54 55 57 61 58 64 63 65 68 72 72 63 76 78 75 70 72 64 62 67 68 70 66
82 79 77 75 82 87 90 87 81 76 71 67 61 59 60 57 57 59 58 56 57 61 61 60 64 64 63 65 68 76 75 76 75 77 70 65 70 65 66 69 72 77 76 72
84 83 82 80 78 81 84 84 78 69 64 61 62 65 60 60 57 56 56 56 59 61 69 72 64 65 73 76 75 73 73 73 70 67 66 68 70 68 73 75 79 79 78 77
87 83 80 82 78 78 80 71 64 63 62 62 59 57 60 60 55 54 54 62 60 67 75 65 65 70 79 76 65 72 72 71 71 73 76 75 75 79 79 80 77 79 80 76
88 84 83 83 82 76 70 63 63 66 66 61 58 57 57 58 59 60 63 71 78 70 71 66 72 77 86 70 68 71 72 74 76 82 82 83 85 88 88 86 86 82 81 79
86 87 85 80 78 76 70 67 67 66 63 61 58 57 60 69 75 80 76 74 79 65 67 71 73 76 71 62 70 73 76 78 80 82 87 90 91 94 96 95 95 91 88 91
83 81 78 76 79 83 72 66 62 61 61 58 60 61 63 69 69 70 79 74 68 64 71 74 63 67 61 72 75 78 82 80 81 84 94 97 97 98 98 97 94 93 95 93
78 78 78 74 71 69 73 69 65 63 64 64 65 63 64 69 76 78 70 61 61 70 72 69 66 62 64 78 82 88 84 83 94 96 97 86 98 98 98 96 96 94 94 93
82 83 81 79 76 79 81 79 75 72 67 67 66 64 62 64 71 74 71 65 58 61 68 60 61 67 78 80 85 85 88 96 96 97 97 98 98 98 96 96 96 95 92 92
76 76 72 71 72 68 65 62 66 64 61 64 65 65 65 62 64 68 66 66 68 63 70 71 71 74 76 81 84 82 86 94 92 97 93 98 98 97 96 96 96 95 94 94
76 72 70 68 65 64 64 61 61 65 58 56 59 59 58 62 61 66 66 70 72 70 69 68 67 72 78 81 83 86 94 96 90 92 98 97 97 97 96 96 95 94 94 93

GFSNGP_sfc_rhum_039.txt.gz
RH
79 76 82 96 98 97 99 89 94 60 67 54 44 57 53 53 86 84 86 76 70 64 54 46 40 36 34 32 31 30 32 35 35 35 34 34 35 34 34 34 35 36 35 35
97 81 82 100 95 98 96 87 92 80 76 54 45 57 62 67 83 81 84 74 66 59 49 44 39 36 35 34 34 34 36 38 39 36 35 37 35 36 36 36 36 36 36 37
95 79 84 95 97 98 95 87 80 94 70 56 55 51 56 71 76 82 81 71 63 55 48 41 38 35 35 34 35 36 37 37 36 34 36 36 35 35 36 37 36 37 36 37
96 93 94 70 83 87 94 83 77 69 60 54 60 65 72 75 80 84 75 68 60 52 46 40 36 36 36 36 37 38 37 36 35 35 35 35 35 35 37 36 36 36 37 38
99 97 79 66 66 88 94 82 80 70 63 58 68 73 72 73 80 79 73 64 57 50 44 39 38 36 38 39 38 36 36 35 33 32 34 34 36 37 38 37 37 38 39 41
99 99 97 71 66 74 78 87 74 69 68 76 80 82 79 85 82 80 72 64 58 49 42 39 38 36 38 39 35 36 35 34 32 33 34 37 38 39 40 39 37 39 40 44
96 99 86 68 65 80 76 74 66 74 73 79 85 85 85 86 86 79 72 63 52 46 42 40 37 36 38 37 36 35 34 33 34 35 38 39 40 41 40 41 43 45 47 50
91 96 92 65 61 64 55 65 69 71 79 86 88 84 82 81 80 73 68 60 50 47 43 39 36 37 37 37 35 34 35 38 39 40 37 40 41 42 43 47 49 50 55 52
81 79 65 73 64 62 70 73 74 79 79 82 78 82 78 75 70 64 59 54 47 44 44 41 38 33 36 36 35 36 38 42 43 42 43 42 42 45 45 51 54 55 56 57
86 76 80 69 68 75 80 83 86 86 80 75 76 71 68 63 61 58 54 50 46 43 42 40 35 34 35 35 36 38 42 49 49 47 48 46 44 45 52 55 58 57 58 58
84 76 77 74 70 81 82 78 76 71 70 70 68 68 64 61 58 54 51 48 44 42 41 41 38 36 35 38 39 42 46 48 50 50 49 49 49 51 57 58 60 55 57 56
79 66 67 68 74 77 82 80 73 69 69 65 63 63 57 56 52 49 48 45 44 42 40 40 38 39 41 43 42 44 49 52 52 50 52 51 54 54 57 54 56 55 54 54
70 71 78 79 76 76 80 80 71 68 65 64 58 54 52 53 50 53 45 44 44 44 43 42 42 45 47 46 45 48 53 55 57 55 54 55 60 59 60 51 53 52 54 57
69 72 78 75 77 77 76 74 69 65 60 58 56 55 54 54 50 48 48 47 44 44 45 45 47 50 51 51 57 65 62 61 58 59 56 62 63 61 57 58 56 51 54 60
78 75 68 77 79 80 73 71 74 73 65 64 57 55 52 53 52 50 46 43 43 46 48 49 51 55 53 53 53 57 60 63 64 62 63 62 61 56 57 56 53 54 53 56
90 86 84 84 86 84 80 78 74 76 70 63 62 62 57 51 50 50 47 44 43 47 51 51 54 56 58 57 58 58 62 62 63 61 62 61 56 58 58 54 56 57 59 59
92 99 100 98 92 82 74 72 70 70 68 65 64 58 53 52 51 52 54 50 49 53 54 53 58 59 60 59 60 62 62 62 62 61 59 55 58 62 55 58 62 63 64 64
82 79 77 74 77 82 82 77 72 67 65 61 57 55 53 51 54 55 55 54 56 59 59 60 62 61 62 64 67 65 62 63 60 59 56 58 62 58 62 65 67 71 69 66
85 85 82 79 76 78 77 75 70 65 59 56 56 59 56 55 53 54 53 54 56 60 69 70 70 74 77 70 64 62 61 58 57 58 60 66 64 64 69 70 72 71 69 68
91 88 84 84 78 76 74 68 62 61 59 58 57 56 57 56 53 53 53 62 62 73 73 64 68 78 79 66 62 62 60 60 62 64 67 66 69 73 72 77 73 72 72 69
92 88 86 83 79 71 67 62 61 62 60 55 54 56 56 57 56 58 66 75 77 68 70 69 73 82 72 64 63 63 64 66 67 71 71 72 77 80 79 78 79 76 75 74
91 88 84 78 74 74 67 63 60 60 58 58 57 56 58 68 75 81 76 72 79 70 69 73 81 72 64 62 64 67 70 70 70 71 74 78 83 86 89 87 88 85 84 86
88 82 78 76 75 75 68 64 61 57 55 55 57 58 61 69 68 71 80 74 70 66 73 76 73 65 62 68 69 73 74 72 73 75 82 90 90 94 92 91 90 88 91 90
81 76 78 71 66 66 71 67 63 61 62 62 66 65 66 74 80 75 65 65 65 71 73 73 68 62 65 71 75 79 74 74 82 89 87 86 92 92 92 91 92 89 89 90
84 81 78 75 72 73 78 77 75 73 68 69 69 68 67 69 72 74 72 72 69 70 72 61 63 64 72 73 79 79 79 86 93 90 88 92 94 95 92 90 92 92 90 89
77 73 71 66 69 66 64 61 67 64 62 66 68 69 71 68 65 68 68 68 67 62 66 69 68 72 74 79 81 78 81 86 86 89 89 93 94 93 92 90 91 91 90 91
77 74 72 68 63 64 64 63 63 65 59 58 65 63 63 64 66 69 68 69 68 64 63 61 61 70 74 77 79 82 88 89 88 88 92 94 93 94 91 91 91 91 91 90